Wind_Speed
35 31 27 24 23 19 19 18 20 9 9 11 6 9 12 13 11 7 5 3 3 3 2 1 1 1 2 5 6 7 9 10 11 13 15 15 17 19
34 35 29 24 25 19 18 17 18 18 6 12 5 16 13 14 11 10 8 7 8 6 4 4 5 7 8 9 10 11 12 13 12 12 14 16 17 19
30 31 30 27 24 20 19 19 20 20 14 7 11 15 13 13 13 11 10 7 8 5 4 5 7 7 7 8 9 11 12 11 10 12 14 17 19 21
29 29 31 28 25 21 22 27 27 24 16 15 14 11 11 12 14 10 9 7 6 4 4 6 7 7 6 8 9 11 12 9 9 14 16 19 22 23
32 32 33 31 28 26 26 26 23 22 15 14 10 15 11 14 14 14 9 6 4 3 4 5 6 7 10 13 10 14 13 11 13 16 18 20 21 22
38 35 33 32 31 29 30 31 20 15 19 22 17 17 19 17 17 14 10 5 5 3 4 5 8 12 10 14 12 17 13 13 14 17 20 21 21 24
34 35 33 31 30 30 33 22 21 28 24 24 17 13 14 15 11 8 7 6 6 6 6 4 8 6 4 6 10 12 14 13 15 19 22 22 24 25
37 33 34 38 35 33 24 20 32 33 27 20 13 16 15 16 14 12 13 6 3 4 5 4 4 5 6 7 11 11 12 15 19 22 21 23 25 27
34 34 34 30 32 30 29 29 20 21 24 26 30 24 22 19 18 16 12 10 6 3 4 2 5 6 9 9 10 10 13 18 19 20 22 25 27 28
30 29 33 31 29 32 30 30 29 26 23 26 26 26 25 21 17 15 14 12 9 8 8 2 6 10 10 7 8 13 19 18 20 22 25 26 28 30
28 28 32 34 35 39 41 44 42 38 33 33 32 28 24 20 17 16 13 10 5 4 6 4 6 12 9 5 9 17 19 18 22 24 25 26 27 31
33 31 31 34 36 37 42 45 41 32 36 34 31 27 23 20 16 12 11 9 5 5 5 4 6 10 7 4 16 17 18 20 22 22 21 22 24 27
34 33 31 30 31 34 37 39 40 37 34 30 27 24 22 17 14 12 10 8 6 7 5 5 4 8 6 10 14 11 19 19 19 17 21 19 22 21
34 33 33 33 35 37 40 37 36 34 30 28 24 20 18 13 11 9 9 7 6 4 3 4 2 7 10 12 9 17 17 16 13 21 20 21 21 21
39 39 38 39 38 37 32 28 31 30 25 22 20 17 14 12 10 8 8 6 4 6 3 3 5 7 8 10 14 16 19 17 14 18 20 24 24 24
44 38 37 39 37 35 29 25 21 18 19 19 18 15 12 10 10 8 7 7 4 4 4 4 6 8 11 11 12 14 13 11 18 18 21 23 22 20
42 38 34 31 29 26 23 21 19 18 18 17 16 14 12 10 9 8 8 7 6 7 7 7 10 10 11 12 13 10 12 13 16 19 22 23 23 24
31 28 26 25 25 23 22 20 18 17 16 15 14 12 11 9 9 9 9 9 8 7 8 9 11 13 11 7 7 9 11 14 18 20 20 22 23 25
29 24 22 22 22 21 20 19 18 15 14 14 13 11 10 9 8 9 9 9 10 9 8 9 10 12 11 6 11 8 11 18 21 22 21 20 24 27
24 23 21 21 20 20 19 19 17 15 13 12 11 10 9 8 8 7 8 9 9 10 10 10 10 11 11 11 13 20 15 14 18 20 21 22 23 23
22 22 20 20 19 19 19 17 16 13 12 11 10 9 8 7 7 6 7 8 9 10 11 12 13 15 11 13 14 17 19 16 17 23 22 21 18 21
21 21 20 18 18 17 16 15 15 13 11 10 9 7 6 6 5 5 7 8 10 11 11 13 13 12 12 12 16 19 21 24 21 18 15 15 14 13
20 19 19 18 17 16 15 14 12 11 9 8 7 5 5 4 5 5 6 7 9 11 13 15 14 12 12 13 15 17 19 19 20 20 19 18 21 23
Wind_Direction
193 199 196 190 201 200 204 185 169 161 167 157 133 169 178 184 194 202 183 197 177 177 198 281 151 68 39 7 356 346 344 345 360 8 5 1 353 348
196 200 197 198 198 196 201 177 176 163 146 158 105 150 164 163 178 186 177 164 141 134 122 94 52 37 20 5 358 358 360 1 7 7 360 353 351 345
196 200 199 201 197 190 179 178 179 162 156 113 132 154 150 169 169 176 178 166 153 109 88 58 40 25 19 16 7 358 354 3 352 351 353 351 347 341
196 200 202 201 190 182 179 178 178 177 155 137 153 165 164 170 166 165 179 172 152 109 72 41 28 23 22 13 353 353 355 2 353 350 358 348 342 339
200 205 204 199 188 183 182 174 179 188 186 168 155 185 163 178 163 165 167 165 113 76 46 23 21 21 28 20 1 354 357 360 355 354 350 342 340 336
202 207 204 194 189 185 187 190 188 210 197 200 171 168 170 174 175 158 149 139 98 71 40 27 41 30 11 11 335 339 359 354 347 344 341 339 335 332
198 199 197 190 190 184 191 188 213 204 184 177 156 148 151 158 163 159 129 127 99 47 40 29 39 16 347 335 317 337 342 343 338 338 337 335 331 330
181 181 185 187 185 186 204 216 209 201 183 165 150 140 145 142 135 133 133 142 125 33 54 107 354 349 332 324 315 336 340 338 335 333 333 330 331 330
158 158 158 158 161 167 183 189 182 190 197 180 147 136 129 135 131 125 117 120 117 56 50 155 2 335 321 322 324 336 335 335 333 334 331 333 332 332
145 145 147 146 153 160 146 120 110 110 119 128 130 125 127 129 126 118 122 118 109 62 35 49 347 327 326 332 329 334 336 338 337 337 333 335 335 333
127 133 137 138 138 142 135 116 103 96 102 110 113 117 117 116 110 114 106 121 126 115 26 8 356 330 323 327 330 334 339 339 337 337 336 336 332 331
117 118 124 126 129 134 133 124 112 116 115 110 104 101 103 101 102 100 103 112 127 160 18 15 3 2 336 323 334 334 339 337 338 336 335 334 332 328
111 109 110 114 115 118 124 121 119 124 113 110 107 103 93 86 81 81 80 86 91 94 16 27 5 358 335 319 322 334 339 338 337 337 338 337 333 327
111 111 112 110 109 112 111 112 116 118 116 109 105 102 101 96 88 78 72 71 79 88 39 24 350 342 329 326 322 333 340 337 342 341 342 338 337 336
113 114 112 106 103 102 105 107 114 108 103 103 104 102 102 102 100 91 69 61 58 41 16 344 332 329 320 307 315 325 325 341 343 343 341 336 334 335
114 113 109 106 103 104 100 97 99 106 109 108 106 104 100 88 76 67 61 49 53 32 3 339 333 323 309 300 303 311 329 331 333 338 336 329 332 332
116 111 106 103 101 100 101 103 105 107 106 107 106 103 96 87 74 59 51 42 36 14 360 349 338 325 303 290 292 304 328 324 332 330 331 330 331 340
105 105 108 110 112 117 115 112 109 107 106 106 102 97 90 83 72 56 43 31 23 11 357 349 342 342 337 324 264 303 323 327 328 330 332 329 327 333
102 102 107 110 114 117 117 115 111 109 105 102 99 92 87 76 62 53 39 26 10 357 354 349 351 353 342 328 321 320 314 323 322 325 328 328 319 326
104 110 118 119 118 118 117 114 112 109 105 102 97 92 82 73 63 49 38 22 4 353 349 349 351 350 333 318 308 302 323 305 310 310 316 316 317 328
115 114 115 114 115 114 113 114 115 113 111 105 95 85 77 69 59 40 25 10 360 1 346 340 334 326 311 305 299 311 320 323 317 310 310 314 323 330
114 113 114 117 117 117 117 115 112 110 107 102 96 92 82 68 55 33 24 358 356 350 337 332 332 330 322 316 314 320 325 325 336 329 323 315 307 311
110 116 117 115 117 116 118 117 115 112 109 103 96 82 81 74 49 30 13 352 344 339 341 338 338 332 327 315 318 321 316 326 330 328 325 324 317 310
Height
759 766 771 774 779 783 787 789 795 805 814 822 826 828 829 831 835 840 840 842 845 845 843 842 844 844 845 846 845 845 844 842 841 841 841 839 839 838
757 763 768 772 776 780 784 788 794 799 809 818 824 824 829 830 834 836 838 839 843 843 842 841 843 844 844 844 844 844 844 842 840 839 839 839 836 836
751 758 764 768 772 777 782 787 793 797 804 817 821 827 830 830 831 834 837 839 839 840 843 842 842 843 842 842 843 842 841 841 839 836 836 835 834 832
746 753 758 764 769 774 780 784 788 793 798 807 818 825 828 832 832 833 837 839 837 839 842 841 841 841 841 840 840 840 839 837 837 836 832 832 831 828
743 749 754 759 765 771 778 780 785 791 793 801 813 821 824 830 830 835 837 839 836 839 841 842 842 842 841 841 839 839 838 836 836 834 830 829 826 825
737 744 749 753 759 766 770 774 781 790 795 798 806 814 820 827 830 832 837 836 835 840 840 840 840 841 841 842 841 838 837 835 835 832 830 826 823 820
730 736 743 750 756 762 766 770 779 785 789 795 800 810 817 824 826 830 833 836 838 840 840 840 840 841 843 843 842 839 836 834 832 830 827 824 822 817
719 728 737 744 749 754 765 768 775 777 783 789 798 805 813 819 824 827 831 836 839 840 840 842 842 841 841 841 838 836 834 833 832 829 826 822 818 814
715 722 730 738 742 747 758 765 770 774 779 784 791 802 811 817 823 828 830 833 837 839 839 840 840 839 838 838 836 834 832 830 827 825 822 820 816 810
721 727 730 736 743 747 757 763 773 779 785 790 796 805 813 817 823 826 830 834 838 839 840 841 840 838 837 836 835 832 830 827 824 820 818 815 811 806
729 734 737 740 748 750 753 764 778 788 796 799 803 810 815 820 824 828 831 835 838 840 840 840 839 836 834 833 833 831 828 824 821 817 814 813 810 804
736 742 747 749 753 757 758 767 777 794 797 803 810 814 818 823 827 829 831 834 836 838 841 841 839 838 835 832 832 830 827 823 820 817 815 811 808 803
739 748 756 760 761 765 768 775 780 793 801 807 812 817 821 826 830 832 834 835 836 837 839 840 840 840 839 835 831 831 827 823 820 818 815 810 807 801
743 754 762 766 769 773 777 785 791 798 805 810 815 820 824 829 833 836 836 837 837 838 839 838 840 840 839 836 833 830 827 823 820 817 814 809 804 799
750 761 768 771 775 781 788 795 800 805 810 815 820 825 829 832 834 836 837 837 838 837 838 839 840 839 838 837 834 830 826 823 820 817 813 807 801 795
757 764 770 775 783 791 796 802 807 812 816 820 825 830 834 837 838 839 839 838 839 839 839 839 838 837 836 836 834 830 826 825 821 817 812 806 800 795
760 768 776 783 790 798 802 808 814 818 820 824 829 832 835 837 838 839 840 840 841 840 840 839 837 836 834 833 832 829 826 824 822 817 811 805 799 793
771 778 784 789 794 801 807 812 819 822 825 828 831 835 837 839 839 840 841 842 841 841 841 840 839 836 831 829 828 827 826 823 820 815 810 804 797 791
774 784 792 797 802 806 811 814 820 825 828 830 834 837 839 841 842 842 841 841 843 842 839 839 838 837 834 830 829 826 825 821 817 813 808 804 797 790
785 791 799 803 807 811 813 818 824 828 832 835 837 838 840 841 842 844 844 845 845 843 841 839 838 837 837 836 832 825 822 819 816 810 805 801 796 790
792 797 803 806 812 815 817 821 826 831 835 837 838 841 841 843 844 846 846 848 844 844 843 841 839 837 835 833 829 823 820 816 813 807 803 798 793 788
798 801 805 812 815 819 822 826 830 834 837 839 839 842 842 844 845 845 844 849 847 846 844 841 838 835 833 831 827 822 816 812 808 805 802 799 794 788
803 808 811 814 819 822 826 828 833 836 840 841 843 845 845 845 844 844 845 848 847 847 844 840 837 835 832 829 826 822 817 811 807 802 798 795 792 787